Regional Weather Roundup
Issued by NWS

Home | Current Version | Previous Version | Text Only | Print | Product List | Glossary Off
Versions: 1 2 3 4 5 6 7 8 9 10 11 12 13 14 15 16 17 18 19 20 21 22 23 24 25 26 27 28 29 30 31 32 33 34 35 36 37 38 39 40 41 42 43 44 45 46 47 48 49 50

000
ASUS43 KDTX 212101
RWRMI
MICHIGAN HOURLY REGIONAL WEATHER ROUNDUP
NATIONAL WEATHER SERVICE DETROIT/PONTIAC MI
500 PM EDT SUN SEP 21 2014

NOTE: "FAIR" INDICATES FEW OR NO CLOUDS BELOW 12,000 FEET WITH NO
SIGNIFICANT WEATHER AND/OR OBSTRUCTION TO VISIBILITY.

MIZ047>049-052>055-059>063-066>070-074>076-081>083-212200-
SOUTHEAST LOWER MICHIGAN

CITY           SKY/WX    TMP DP  RH WIND       PRES   REMARKS
ADRIAN         PTSUNNY   62  53  72 NW12G24   29.79R
ALMA           CLOUDY    56  48  76 N17G30    29.85R
ANN ARBOR      PTSUNNY   62  55  77 NW13G23   29.75R
BAD AXE        RAIN      51  50  97 N18G29    29.77R
CARO           CLOUDY    54  51  89 N18G25    29.78R
DETROIT CITY   CLOUDY    63  54  72 NW14      29.72R
DETROIT        LGT RAIN  59  56  89 W15G23    29.74R
FLINT          LGT RAIN  58  54  86 N12       29.78R
GROSSE ILE     CLOUDY    63  55  77 W16G29    29.72R
HILLSDALE      PTSUNNY   62  53  73 NW20G26   29.81R
HOWELL         LGT RAIN  56  55  94 NW15G23   29.78R

CITY           SKY/WX    TMP DP  RH WIND       PRES   REMARKS
JACKSON        PTSUNNY   58  54  86 NW17G31   29.80R
LAMBERTVILLE   CLOUDY    63  52  67 W9G22     29.77S
LANSING        CLOUDY    57  52  83 NW20G31   29.82R
LAPEER         LGT RAIN  53  50  92 N13G23    29.77R
MASON          CLOUDY    57  53  86 N15G25    29.80R
MONROE         PTSUNNY   63  55  77 W23G30    29.73S
MT. CLEMENS    LGT RAIN  58  53  83 NW18G29   29.71R
PONTIAC        LGT RAIN  56  52  86 N12       29.74R
PORT HOPE        N/A     54  50  86 VRB5      29.74R
PORT HURON     RAIN      55  54  94 NW10      29.71R
TRI CITIES     CLOUDY    55  50  83 N17       29.82R
TROY           LGT RAIN  61  56  82 NW12G20   29.75R
SAGINAW HB     CLOUDY    54  54 100 N12G21    29.79R
$$
MIZ043>046-050>051-056>058-064>065-071>073-077>080-212200-
SOUTHWEST LOWER MICHIGAN

CITY           SKY/WX    TMP DP  RH WIND       PRES   REMARKS
BATTLE CREEK   CLOUDY    60  51  72 NW21G36   29.86R
BENTON HARBOR  CLOUDY    57  49  74 NW12G24   29.94R
BIG RAPIDS     CLOUDY    54  51  88 N13G20    29.89R
COLDWATER      CLOUDY    60  53  75 NW14G22   29.84R
FREMONT        RAIN      54  51  87 NW18G28   29.92R
HOLLAND        CLOUDY    59  50  72 NW14G26   29.93R
GRAND RAPIDS   CLOUDY    58  52  80 NW15G24   29.89R
IONIA          LGT RAIN  57  51  79 NW13G22   29.85R
KALAMAZOO      CLOUDY    59  49  69 NW24G32   29.88R
LUDINGTON      CLOUDY    52  47  84 N21G28    29.97R
MARSHALL       CLOUDY    58  53  85 NW13G21   29.83R
MOUNT PLEASANT LGT RAIN  53  49  87 NW9G17    29.85R
MUSKEGON       LGT RAIN  56  49  77 NW20G30   29.94R
SOUTH HAVEN    CLOUDY    58  51  78 N16G36    29.93R
$$
MIZ016>042-212200-
NORTHERN LOWER MICHIGAN

CITY           SKY/WX    TMP DP  RH WIND       PRES   REMARKS
ALPENA         CLOUDY    52  48  86 NW10      29.81R
BEAVER ISLAND  CLOUDY    50  39  67 N14G24    29.94R
BELLAIRE       CLOUDY    51  44  77 N6        29.92R
CADILLAC       RAIN      49  47  94 NW12G26   29.89R
CHARLEVOIX     CLOUDY    50  43  75 NW16G24   29.95R
FRANKFORT      CLOUDY    50  42  73 N15G24    29.97R
GAYLORD        CLOUDY    49  43  80 MISG      29.86R
GRAYLING       CLOUDY    51  45  78 NW23G32   29.87R
HARBOR SPRINGS CLOUDY    52  40  65 NW9G21    29.90R
HOUGHTON LAKE  CLOUDY    51  47  86 NW21G28   29.86R
MANISTEE       CLOUDY    50  43  76 N10G29    29.98R
OSCODA         LGT RAIN  51  49  93 NW9       29.79R
PELLSTON       CLOUDY    52  41  66 N18G29    29.89R
ROGERS CITY    CLOUDY    51  46  83 N14G22    29.84R
TRAVERSE CITY  CLOUDY    50  43  77 N16G24    29.93R
$$
MIZ007>008-015-212200-
EASTERN UPPER MICHIGAN

CITY           SKY/WX    TMP DP  RH WIND       PRES   REMARKS
KINROSS        CLOUDY    50  43  76 NW22G29   29.87R
MACKINAC ISLAN PTSUNNY   50  40  68 N17G24    29.88R
NEWBERRY       CLOUDY    46  37  69 N13G25    29.94R
S. S. MARIE    CLOUDY    54  39  57 N16G25    29.87R
$$
MIZ004>006-011>014-085-212200-
CENTRAL UPPER MICHIGAN

CITY           SKY/WX    TMP DP  RH WIND       PRES   REMARKS
MANISTIQUE     CLOUDY    46  37  72 N13G31    29.97R
ESCANABA       CLOUDY    46  37  71 N14       30.01R
MENOMINEE      MOSUNNY   55  39  54 N14G22    30.00R
SAWYER-GWINN   CLOUDY    43  36  75 N20G26    30.03R
$$
MIZ001>003-009>011-084-212200-
WESTERN UPPER MICHIGAN

CITY           SKY/WX    TMP DP  RH WIND       PRES   REMARKS
IRON MOUNTAIN  SUNNY     53  36  52 N20       30.02R
HOUGHTON       SUNNY     50  37  61 N13       30.07R
COPPER HARBOR    N/A     47  38  71 NE13      30.07R
IRONWOOD       SUNNY     52  39  62 N5        30.10S
$$

ABBREVIATIONS USED IN REMARKS
   TC - TEMPERATURE IN CELSIUS
  WCI - WIND CHILL INDEX
   HX - HEAT INDEX
  VSB - VISIBILITY



USA.gov is the U.S. government's official web portal to all federal, state and local government web resources and services.